Погода в Турке

Украина / Львовская область     49°09′26″N   23°01′20″E
темп.,
°C
ветер,
м/с
пор.,
м/с
влажн.,
%
обл.,
%
осадки,
мм/ч
давл.,
гПа
погр.,
м
17 августа, ср
ср1700:00+15зюз11936 0.0 101111
03:00+14зюз119464 0.0 101011
06:00+14юз119544 0.0 101111
09:00+18з128837 0.0 1011260
12:00+22сз346854 0.3 10121096
15:00+20ссз248514 2.6 1012647
18:00+20ссз248637 2.9 1012452
21:00+17св11956 4.9 101311
18 августа, чт
чт1800:00+15зюз01955 0.0 101411
03:00+15ю11945 0.0 101311
06:00+14ю11940 0.0 101311
09:00+18в11874 0.0 1014172
12:00+24в33550 0.0 10131043
15:00+27в224359 0.0 10121852
18:00+26в33487 0.0 10121457
21:00+19юв22745 0.0 101319
19 августа, пт
пт1900:00+17ю228452 0.0 101419
03:00+16ююв228767 0.0 101312
06:00+15ююв22915 0.0 101314
09:00+21вюв126843 0.0 1013197
12:00+27вюв334413 0.0 10121128
15:00+29в32375 0.0 10111729
18:00+28в44465 0.0 1011831
21:00+21вюв26665 0.0 1012133
20 августа, сб
сб2000:00+18юв227662 0.0 101211
03:00+18ююв237343 0.0 101242
06:00+18ююз227497 0.0 101112
09:00+22ю126440 0.1 1011116
12:00+29сз114451 0.0 10111148
15:00+31с233950 0.0 10102180
18:00+23вюв227342 0.9 101069
21:00+20вюв2285100 1.9 101037
21 августа, вс
вс2100:00+18сз13100100 10.3 1012163
03:00+18вюв1198100 10.5 101315
06:00+17ссз2399100 0.9 1013132
09:00+18ссз229198 0.9 1013376
12:00+19ссз2382100 0.0 1014711
15:00+19сз2386100 0.2 1014556
18:00+18с2598100 1.5 1014324
21:00+17с2899100 3.1 1013544